Year,Month,Day,Hour,Minute,Value (Times are PST for temperature in C)
2009,05,31,00,00,13.60
2009,05,31,00,01,13.60
2009,05,31,00,02,13.60
2009,05,31,00,03,13.70
2009,05,31,00,04,13.70
2009,05,31,00,05,13.70
2009,05,31,00,06,13.70
2009,05,31,00,07,13.70
2009,05,31,00,08,13.70
2009,05,31,00,09,13.70
2009,05,31,00,10,13.70
2009,05,31,00,11,13.70
2009,05,31,00,12,13.70
2009,05,31,00,13,13.70
2009,05,31,00,14,13.70
2009,05,31,00,15,13.70
2009,05,31,00,16,13.70
2009,05,31,00,17,13.70
2009,05,31,00,18,13.70
2009,05,31,00,19,13.70
2009,05,31,00,20,13.70
2009,05,31,00,21,13.70
2009,05,31,00,22,13.70
2009,05,31,00,23,13.70
2009,05,31,00,24,13.70
2009,05,31,00,25,13.70
2009,05,31,00,26,13.70
2009,05,31,00,27,13.70
2009,05,31,00,28,13.70
2009,05,31,00,29,13.80
2009,05,31,00,30,13.80
2009,05,31,00,31,13.80
2009,05,31,00,32,13.80
2009,05,31,00,33,13.80
2009,05,31,00,34,13.90
2009,05,31,00,35,13.90
2009,05,31,00,36,13.90
2009,05,31,00,37,13.90
2009,05,31,00,38,13.80
2009,05,31,00,39,13.80
2009,05,31,00,40,13.80
2009,05,31,00,41,13.80
2009,05,31,00,42,13.80
2009,05,31,00,43,13.80
2009,05,31,00,44,13.80
2009,05,31,00,45,13.70
2009,05,31,00,46,13.70
2009,05,31,00,47,13.70
2009,05,31,00,48,13.70
2009,05,31,00,49,13.60
2009,05,31,00,50,13.60
2009,05,31,00,51,13.60
2009,05,31,00,52,13.60
2009,05,31,00,53,13.60
2009,05,31,00,54,13.60
2009,05,31,00,55,13.50
2009,05,31,00,56,13.60
2009,05,31,00,57,13.60
2009,05,31,00,58,13.50
2009,05,31,00,59,13.50
2009,05,31,01,00,13.50
2009,05,31,01,01,13.50
2009,05,31,01,02,13.50
2009,05,31,01,03,13.50
2009,05,31,01,04,13.60
2009,05,31,01,05,13.60
2009,05,31,01,06,13.60
2009,05,31,01,07,13.60
2009,05,31,01,08,13.60
2009,05,31,01,09,13.60
2009,05,31,01,10,13.60
2009,05,31,01,11,13.60
2009,05,31,01,12,13.60
2009,05,31,01,13,13.60
2009,05,31,01,14,13.60
2009,05,31,01,15,13.60
2009,05,31,01,16,13.60
2009,05,31,01,17,13.60
2009,05,31,01,18,13.60
2009,05,31,01,19,13.60
2009,05,31,01,20,13.60
2009,05,31,01,21,13.60
2009,05,31,01,22,13.60
2009,05,31,01,23,13.60
2009,05,31,01,24,13.60
2009,05,31,01,25,13.60
2009,05,31,01,26,13.60
2009,05,31,01,27,13.60
2009,05,31,01,28,13.60
2009,05,31,01,29,13.50
2009,05,31,01,30,13.50
2009,05,31,01,31,13.50
2009,05,31,01,32,13.40
2009,05,31,01,33,13.40
2009,05,31,01,34,13.40
2009,05,31,01,35,13.40
2009,05,31,01,36,13.40
2009,05,31,01,37,13.40
2009,05,31,01,38,13.40
2009,05,31,01,39,13.30
2009,05,31,01,40,13.30
2009,05,31,01,41,13.30
2009,05,31,01,42,13.30
2009,05,31,01,43,13.30
2009,05,31,01,44,13.30
2009,05,31,01,45,13.30
2009,05,31,01,46,13.30
2009,05,31,01,47,13.20
2009,05,31,01,48,13.20
2009,05,31,01,49,13.20
2009,05,31,01,50,13.20
2009,05,31,01,51,13.10
2009,05,31,01,52,13.10
2009,05,31,01,53,13.10
2009,05,31,01,54,13.00
2009,05,31,01,55,13.00
2009,05,31,01,56,13.00
2009,05,31,01,57,13.00
2009,05,31,01,58,13.00
2009,05,31,01,59,13.00
2009,05,31,02,00,13.00
2009,05,31,02,01,13.00
2009,05,31,02,02,13.00
2009,05,31,02,03,13.10
2009,05,31,02,04,13.10
2009,05,31,02,05,13.10
2009,05,31,02,06,13.10
2009,05,31,02,07,13.10
2009,05,31,02,08,13.10
2009,05,31,02,09,13.00
2009,05,31,02,10,13.00
2009,05,31,02,11,13.00
2009,05,31,02,12,13.00
2009,05,31,02,13,13.00
2009,05,31,02,14,13.00
2009,05,31,02,15,13.00
2009,05,31,02,16,12.90
2009,05,31,02,17,12.90
2009,05,31,02,18,12.90
2009,05,31,02,19,12.90
2009,05,31,02,20,12.90
2009,05,31,02,21,12.90
2009,05,31,02,22,12.80
2009,05,31,02,23,12.80
2009,05,31,02,24,12.80
2009,05,31,02,25,12.80
2009,05,31,02,26,12.80
2009,05,31,02,27,12.80
2009,05,31,02,28,12.80
2009,05,31,02,29,12.70
2009,05,31,02,30,12.70
2009,05,31,02,31,12.70
2009,05,31,02,32,12.60
2009,05,31,02,33,12.60
2009,05,31,02,34,12.50
2009,05,31,02,35,12.50
2009,05,31,02,36,12.50
2009,05,31,02,37,12.40
2009,05,31,02,38,12.40
2009,05,31,02,39,12.40
2009,05,31,02,40,12.40
2009,05,31,02,41,12.30
2009,05,31,02,42,12.30
2009,05,31,02,43,12.30
2009,05,31,02,44,12.30
2009,05,31,02,45,12.30
2009,05,31,02,46,12.20
2009,05,31,02,47,12.20
2009,05,31,02,48,12.20
2009,05,31,02,49,12.20
2009,05,31,02,50,12.20
2009,05,31,02,51,12.20
2009,05,31,02,52,12.20
2009,05,31,02,53,12.20
2009,05,31,02,54,12.20
2009,05,31,02,55,12.20
2009,05,31,02,56,12.20
2009,05,31,02,57,12.20
2009,05,31,02,58,12.20
2009,05,31,02,59,12.20
2009,05,31,03,00,12.20
2009,05,31,03,01,12.20
2009,05,31,03,02,12.20
2009,05,31,03,03,12.20
2009,05,31,03,04,12.20
2009,05,31,03,05,12.20
2009,05,31,03,06,12.20
2009,05,31,03,07,12.20
2009,05,31,03,08,12.20
2009,05,31,03,09,12.20
2009,05,31,03,10,12.20
2009,05,31,03,11,12.20
2009,05,31,03,12,12.20
2009,05,31,03,13,12.20
2009,05,31,03,14,12.20
2009,05,31,03,15,12.20
2009,05,31,03,16,12.20
2009,05,31,03,17,12.20
2009,05,31,03,18,12.20
2009,05,31,03,19,12.20
2009,05,31,03,20,12.20
2009,05,31,03,21,12.20
2009,05,31,03,22,12.20
2009,05,31,03,23,12.30
2009,05,31,03,24,12.20
2009,05,31,03,25,12.20
2009,05,31,03,26,12.20
2009,05,31,03,27,12.20
2009,05,31,03,28,12.20
2009,05,31,03,29,12.20
2009,05,31,03,30,12.10
2009,05,31,03,34,12.00
2009,05,31,03,35,12.00
2009,05,31,03,36,12.00
2009,05,31,03,37,12.00
2009,05,31,03,38,12.00
2009,05,31,03,39,12.00
2009,05,31,03,40,12.00
2009,05,31,03,41,12.00
2009,05,31,03,42,12.00
2009,05,31,03,43,12.00
2009,05,31,03,44,12.00
2009,05,31,03,45,12.00
2009,05,31,03,46,12.00
2009,05,31,03,47,12.00
2009,05,31,03,48,12.00
2009,05,31,03,49,12.00
2009,05,31,03,50,12.00
2009,05,31,03,51,12.10
2009,05,31,03,52,12.10
2009,05,31,03,53,12.10
2009,05,31,03,54,12.20
2009,05,31,03,55,12.20
2009,05,31,03,56,12.20
2009,05,31,03,57,12.30
2009,05,31,03,58,12.30
2009,05,31,03,59,12.20
2009,05,31,04,00,12.20
2009,05,31,04,01,12.20
2009,05,31,04,02,12.20
2009,05,31,04,03,12.20
2009,05,31,04,04,12.20
2009,05,31,04,05,12.20
2009,05,31,04,06,12.20
2009,05,31,04,07,12.20
2009,05,31,04,08,12.20
2009,05,31,04,09,12.10
2009,05,31,04,10,12.10
2009,05,31,04,11,12.10
2009,05,31,04,12,12.10
2009,05,31,04,13,12.10
2009,05,31,04,14,12.20
2009,05,31,04,15,12.20
2009,05,31,04,16,12.20
2009,05,31,04,17,12.30
2009,05,31,04,18,12.30
2009,05,31,04,19,12.30
2009,05,31,04,20,12.30
2009,05,31,04,21,12.30
2009,05,31,04,22,12.30
2009,05,31,04,23,12.30
2009,05,31,04,24,12.40
2009,05,31,04,25,12.40
2009,05,31,04,26,12.40
2009,05,31,04,27,12.40
2009,05,31,04,28,12.40
2009,05,31,04,29,12.40
2009,05,31,04,30,12.40
2009,05,31,04,31,12.40
2009,05,31,04,32,12.40
2009,05,31,04,33,12.40
2009,05,31,04,34,12.40
2009,05,31,04,35,12.30
2009,05,31,04,36,12.30
2009,05,31,04,37,12.30
2009,05,31,04,38,12.30
2009,05,31,04,39,12.30
2009,05,31,04,40,12.20
2009,05,31,04,41,12.20
2009,05,31,04,42,12.20
2009,05,31,04,43,12.20
2009,05,31,04,44,12.20
2009,05,31,04,45,12.20
2009,05,31,04,46,12.20
2009,05,31,04,47,12.20
2009,05,31,04,48,12.20
2009,05,31,04,49,12.20
2009,05,31,04,50,12.20
2009,05,31,04,51,12.20
2009,05,31,04,52,12.10
2009,05,31,04,53,12.20
2009,05,31,04,54,12.10
2009,05,31,04,55,12.10
2009,05,31,04,56,12.10
2009,05,31,04,57,12.10
2009,05,31,04,58,12.10
2009,05,31,04,59,12.10
2009,05,31,05,00,12.10
2009,05,31,05,01,12.10
2009,05,31,05,02,12.10
2009,05,31,05,03,12.10
2009,05,31,05,04,12.00
2009,05,31,05,05,12.00
2009,05,31,05,06,12.00
2009,05,31,05,07,12.00
2009,05,31,05,08,12.00
2009,05,31,05,09,12.00
2009,05,31,05,10,12.00
2009,05,31,05,11,11.90
2009,05,31,05,12,11.90
2009,05,31,05,13,11.90
2009,05,31,05,14,11.90
2009,05,31,05,15,11.90
2009,05,31,05,16,11.90
2009,05,31,05,17,11.90
2009,05,31,05,18,11.90
2009,05,31,05,19,11.90
2009,05,31,05,20,11.90
2009,05,31,05,21,12.00
2009,05,31,05,22,12.00
2009,05,31,05,23,11.90
2009,05,31,05,24,11.90
2009,05,31,05,25,11.90
2009,05,31,05,26,11.90
2009,05,31,05,27,11.90
2009,05,31,05,28,11.90
2009,05,31,05,29,11.90
2009,05,31,05,30,11.90
2009,05,31,05,31,11.90
2009,05,31,05,32,11.80
2009,05,31,05,33,11.80
2009,05,31,05,34,11.80
2009,05,31,05,35,11.80
2009,05,31,05,36,11.80
2009,05,31,05,37,11.70
2009,05,31,05,38,11.70
2009,05,31,05,39,11.70
2009,05,31,05,40,11.70
2009,05,31,05,41,11.70
2009,05,31,05,42,11.70
2009,05,31,05,43,11.70
2009,05,31,05,44,11.70
2009,05,31,05,45,11.60
2009,05,31,05,46,11.60
2009,05,31,05,47,11.60
2009,05,31,05,48,11.60
2009,05,31,05,49,11.60
2009,05,31,05,50,11.60
2009,05,31,05,51,11.60
2009,05,31,05,52,11.60
2009,05,31,05,53,11.60
2009,05,31,05,54,11.60
2009,05,31,05,55,11.60
2009,05,31,05,56,11.60
2009,05,31,05,57,11.60
2009,05,31,05,58,11.70
2009,05,31,05,59,11.70
2009,05,31,06,00,11.70
2009,05,31,06,01,11.70
2009,05,31,06,02,11.70
2009,05,31,06,03,11.70
2009,05,31,06,04,11.70
2009,05,31,06,05,11.80
2009,05,31,06,06,11.80
2009,05,31,06,07,11.80
2009,05,31,06,08,11.90
2009,05,31,06,09,11.90
2009,05,31,06,10,12.00
2009,05,31,06,11,12.00
2009,05,31,06,12,12.10
2009,05,31,06,13,12.10
2009,05,31,06,14,12.10
2009,05,31,06,15,12.20
2009,05,31,06,16,12.20
2009,05,31,06,17,12.30
2009,05,31,06,18,12.30
2009,05,31,06,19,12.40
2009,05,31,06,20,12.40
2009,05,31,06,21,12.50
2009,05,31,06,22,12.60
2009,05,31,06,23,12.70
2009,05,31,06,24,12.70
2009,05,31,06,25,12.80
2009,05,31,06,26,12.80
2009,05,31,06,27,12.90
2009,05,31,06,28,12.90
2009,05,31,06,29,12.90
2009,05,31,06,30,13.00
2009,05,31,06,31,13.00
2009,05,31,06,32,13.00
2009,05,31,06,33,13.10
2009,05,31,06,34,13.10
2009,05,31,06,35,13.10
2009,05,31,06,36,13.10
2009,05,31,06,37,13.10
2009,05,31,06,38,13.10
2009,05,31,06,39,13.20
2009,05,31,06,40,13.20
2009,05,31,06,41,13.20
2009,05,31,06,42,13.20
2009,05,31,06,43,13.20
2009,05,31,06,44,13.20
2009,05,31,06,45,13.20
2009,05,31,06,46,13.20
2009,05,31,06,47,13.20
2009,05,31,06,48,13.20
2009,05,31,06,49,13.30
2009,05,31,06,50,13.30
2009,05,31,06,51,13.30
2009,05,31,06,52,13.30
2009,05,31,06,53,13.30
2009,05,31,06,54,13.40
2009,05,31,06,55,13.40
2009,05,31,06,56,13.50
2009,05,31,06,57,13.50
2009,05,31,06,58,13.50
2009,05,31,06,59,13.60
2009,05,31,07,00,13.60
2009,05,31,07,01,13.60
2009,05,31,07,02,13.60
2009,05,31,07,03,13.60
2009,05,31,07,04,13.60
2009,05,31,07,05,13.50
2009,05,31,07,06,13.50
2009,05,31,07,07,13.50
2009,05,31,07,08,13.50
2009,05,31,07,09,13.60
2009,05,31,07,10,13.60
2009,05,31,07,11,13.60
2009,05,31,07,12,13.70
2009,05,31,07,13,13.70
2009,05,31,07,14,13.80
2009,05,31,07,15,13.90
2009,05,31,07,16,13.90
2009,05,31,07,17,14.00
2009,05,31,07,18,14.10
2009,05,31,07,19,14.10
2009,05,31,07,20,14.20
2009,05,31,07,21,14.20
2009,05,31,07,22,14.30
2009,05,31,07,23,14.30
2009,05,31,07,24,14.30
2009,05,31,07,25,14.40
2009,05,31,07,26,14.40
2009,05,31,07,27,14.50
2009,05,31,07,28,14.50
2009,05,31,07,29,14.60
2009,05,31,07,30,14.70
2009,05,31,07,31,14.70
2009,05,31,07,32,14.70
2009,05,31,07,33,14.80
2009,05,31,07,34,14.80
2009,05,31,07,35,14.90
2009,05,31,07,36,14.90
2009,05,31,07,37,15.00
2009,05,31,07,38,15.00
2009,05,31,07,39,15.00
2009,05,31,07,40,15.00
2009,05,31,07,41,15.10
2009,05,31,07,42,15.20
2009,05,31,07,43,15.30
2009,05,31,07,44,15.40
2009,05,31,07,45,15.50
2009,05,31,07,46,15.60
2009,05,31,07,47,15.70
2009,05,31,07,48,15.80
2009,05,31,07,49,15.90
2009,05,31,07,50,16.00
2009,05,31,07,51,16.10
2009,05,31,07,52,16.20
2009,05,31,07,53,16.30
2009,05,31,07,54,16.40
2009,05,31,07,55,16.40
2009,05,31,07,56,16.50
2009,05,31,07,57,16.60
2009,05,31,07,58,16.60
2009,05,31,07,59,16.70
2009,05,31,08,00,16.70
2009,05,31,08,01,16.80
2009,05,31,08,02,16.80
2009,05,31,08,03,16.80
2009,05,31,08,04,16.80
2009,05,31,08,05,16.80
2009,05,31,08,06,16.90
2009,05,31,08,07,16.90
2009,05,31,08,08,16.90
2009,05,31,08,09,16.90
2009,05,31,08,10,16.90
2009,05,31,08,11,16.90
2009,05,31,08,12,16.90
2009,05,31,08,13,16.90
2009,05,31,08,14,16.90
2009,05,31,08,15,16.90
2009,05,31,08,16,16.90
2009,05,31,08,17,16.80
2009,05,31,08,18,16.80
2009,05,31,08,19,16.80
2009,05,31,08,20,16.90
2009,05,31,08,21,16.90
2009,05,31,08,22,17.00
2009,05,31,08,23,17.10
2009,05,31,08,24,17.20
2009,05,31,08,25,17.20
2009,05,31,08,26,17.30
2009,05,31,08,27,17.40
2009,05,31,08,28,17.40
2009,05,31,08,29,17.40
2009,05,31,08,30,17.40
2009,05,31,08,31,17.40
2009,05,31,08,32,17.40
2009,05,31,08,33,17.40
2009,05,31,08,34,17.40
2009,05,31,08,35,17.40
2009,05,31,08,36,17.50
2009,05,31,08,37,17.50
2009,05,31,08,38,17.60
2009,05,31,08,39,17.60
2009,05,31,08,40,17.70
2009,05,31,08,41,17.80
2009,05,31,08,42,17.80
2009,05,31,08,43,17.90
2009,05,31,08,44,18.00
2009,05,31,08,45,18.00
2009,05,31,08,46,18.10
2009,05,31,08,47,18.10
2009,05,31,08,48,18.20
2009,05,31,08,49,18.20
2009,05,31,08,50,18.20
2009,05,31,08,51,18.20
2009,05,31,08,52,18.20
2009,05,31,08,53,18.20
2009,05,31,08,54,18.10
2009,05,31,08,55,18.10
2009,05,31,08,56,18.10
2009,05,31,08,57,18.10
2009,05,31,08,58,18.10
2009,05,31,08,59,18.10
2009,05,31,09,00,18.10
2009,05,31,09,01,18.10
2009,05,31,09,02,18.10
2009,05,31,09,03,18.20
2009,05,31,09,04,18.30
2009,05,31,09,05,18.30
2009,05,31,09,06,18.40
2009,05,31,09,07,18.40
2009,05,31,09,08,18.50
2009,05,31,09,09,18.60
2009,05,31,09,10,18.70
2009,05,31,09,11,18.70
2009,05,31,09,12,18.70
2009,05,31,09,13,18.60
2009,05,31,09,14,18.60
2009,05,31,09,15,18.50
2009,05,31,09,16,18.60
2009,05,31,09,17,18.70
2009,05,31,09,18,18.70
2009,05,31,09,19,18.70
2009,05,31,09,20,18.80
2009,05,31,09,21,18.90
2009,05,31,09,22,18.90
2009,05,31,09,23,19.00
2009,05,31,09,24,19.10
2009,05,31,09,25,19.10
2009,05,31,09,26,19.10
2009,05,31,09,27,19.10
2009,05,31,09,28,19.10
2009,05,31,09,29,19.10
2009,05,31,09,30,19.10
2009,05,31,09,31,19.10
2009,05,31,09,32,19.10
2009,05,31,09,33,19.00
2009,05,31,09,34,19.00
2009,05,31,09,35,18.90
2009,05,31,09,36,18.90
2009,05,31,09,37,19.00
2009,05,31,09,38,19.20
2009,05,31,09,39,19.30
2009,05,31,09,40,19.30
2009,05,31,09,41,19.40
2009,05,31,09,42,19.40
2009,05,31,09,43,19.50
2009,05,31,09,44,19.50
2009,05,31,09,45,19.50
2009,05,31,09,46,19.40
2009,05,31,09,47,19.40
2009,05,31,09,48,19.40
2009,05,31,09,49,19.50
2009,05,31,09,50,19.60
2009,05,31,09,51,19.60
2009,05,31,09,52,19.70
2009,05,31,09,53,19.70
2009,05,31,09,54,19.70
2009,05,31,09,55,19.80
2009,05,31,09,56,19.80
2009,05,31,09,57,19.70
2009,05,31,09,58,19.70
2009,05,31,09,59,19.70
2009,05,31,10,00,19.70
2009,05,31,10,01,19.60
2009,05,31,10,02,19.60
2009,05,31,10,03,19.70
2009,05,31,10,04,19.70
2009,05,31,10,05,19.60
2009,05,31,10,06,19.60
2009,05,31,10,07,19.70
2009,05,31,10,08,19.70
2009,05,31,10,09,19.80
2009,05,31,10,10,19.80
2009,05,31,10,11,19.80
2009,05,31,10,12,19.70
2009,05,31,10,13,19.80
2009,05,31,10,14,19.80
2009,05,31,10,15,19.80
2009,05,31,10,16,19.80
2009,05,31,10,17,19.70
2009,05,31,10,18,19.60
2009,05,31,10,19,19.50
2009,05,31,10,20,19.40
2009,05,31,10,21,19.40
2009,05,31,10,22,19.40
2009,05,31,10,23,19.50
2009,05,31,10,24,19.50
2009,05,31,10,25,19.50
2009,05,31,10,26,19.60
2009,05,31,10,27,19.60
2009,05,31,10,28,19.50
2009,05,31,10,29,19.40
2009,05,31,10,30,19.40
2009,05,31,10,31,19.40
2009,05,31,10,32,19.40
2009,05,31,10,33,19.50
2009,05,31,10,34,19.60
2009,05,31,10,35,19.60
2009,05,31,10,36,19.60
2009,05,31,10,37,19.70
2009,05,31,10,38,19.70
2009,05,31,10,39,19.80
2009,05,31,10,40,19.90
2009,05,31,10,41,20.00
2009,05,31,10,42,20.00
2009,05,31,10,43,20.00
2009,05,31,10,44,20.10
2009,05,31,10,45,20.10
2009,05,31,10,46,20.20
2009,05,31,10,47,20.20
2009,05,31,10,48,20.20
2009,05,31,10,49,20.30
2009,05,31,10,50,20.20
2009,05,31,10,51,20.20
2009,05,31,10,52,20.20
2009,05,31,10,53,20.20
2009,05,31,10,54,20.30
2009,05,31,10,55,20.30
2009,05,31,10,56,20.40
2009,05,31,10,57,20.50
2009,05,31,10,58,20.60
2009,05,31,10,59,20.70
2009,05,31,11,00,20.70
2009,05,31,11,01,20.70
2009,05,31,11,02,20.80
2009,05,31,11,03,20.80
2009,05,31,11,04,20.90
2009,05,31,11,05,21.00
2009,05,31,11,06,21.00
2009,05,31,11,07,21.20
2009,05,31,11,08,21.20
2009,05,31,11,09,21.30
2009,05,31,11,10,21.40
2009,05,31,11,11,21.60
2009,05,31,11,12,21.60
2009,05,31,11,13,21.60
2009,05,31,11,14,21.50
2009,05,31,11,15,21.40
2009,05,31,11,16,21.40
2009,05,31,11,17,21.40
2009,05,31,11,18,21.40
2009,05,31,11,19,21.40
2009,05,31,11,20,21.40
2009,05,31,11,21,21.30
2009,05,31,11,22,21.30
2009,05,31,11,23,21.20
2009,05,31,11,24,21.20
2009,05,31,11,25,21.20
2009,05,31,11,26,21.20
2009,05,31,11,27,21.30
2009,05,31,11,28,21.30
2009,05,31,11,29,21.30
2009,05,31,11,30,21.20
2009,05,31,11,31,21.20
2009,05,31,11,32,21.20
2009,05,31,11,33,21.20
2009,05,31,11,34,21.20
2009,05,31,11,35,21.30
2009,05,31,11,36,21.30
2009,05,31,11,37,21.30
2009,05,31,11,38,21.30
2009,05,31,11,39,21.40
2009,05,31,11,40,21.50
2009,05,31,11,41,21.50
2009,05,31,11,42,21.50
2009,05,31,11,43,21.60
2009,05,31,11,44,21.60
2009,05,31,11,45,21.70
2009,05,31,11,46,21.70
2009,05,31,11,47,21.70
2009,05,31,11,48,21.50
2009,05,31,11,49,21.40
2009,05,31,11,50,21.30
2009,05,31,11,51,21.20
2009,05,31,11,52,21.20
2009,05,31,11,53,21.20
2009,05,31,11,54,21.20
2009,05,31,11,55,21.20
2009,05,31,11,56,21.20
2009,05,31,11,57,21.20
2009,05,31,11,58,21.20
2009,05,31,11,59,21.20
2009,05,31,12,00,21.10
2009,05,31,12,01,21.00
2009,05,31,12,02,20.90
2009,05,31,12,03,20.80
2009,05,31,12,04,20.70
2009,05,31,12,05,20.60
2009,05,31,12,06,20.60
2009,05,31,12,07,20.60
2009,05,31,12,08,20.60
2009,05,31,12,09,20.60
2009,05,31,12,10,20.60
2009,05,31,12,11,20.50
2009,05,31,12,12,20.40
2009,05,31,12,13,20.40
2009,05,31,12,14,20.50
2009,05,31,12,15,20.50
2009,05,31,12,16,20.60
2009,05,31,12,17,20.70
2009,05,31,12,18,20.70
2009,05,31,12,19,20.70
2009,05,31,12,20,20.80
2009,05,31,12,21,20.90
2009,05,31,12,22,20.90
2009,05,31,12,23,21.00
2009,05,31,12,24,20.90
2009,05,31,12,25,20.90
2009,05,31,12,26,20.90
2009,05,31,12,27,20.80
2009,05,31,12,28,20.70
2009,05,31,12,29,20.70
2009,05,31,12,30,20.70
2009,05,31,12,31,20.70
2009,05,31,12,32,20.60
2009,05,31,12,33,20.60
2009,05,31,12,34,20.60
2009,05,31,12,35,20.60
2009,05,31,12,36,20.50
2009,05,31,12,37,20.50
2009,05,31,12,38,20.50
2009,05,31,12,39,20.60
2009,05,31,12,40,20.70
2009,05,31,12,41,20.70
2009,05,31,12,42,20.80
2009,05,31,12,43,20.80
2009,05,31,12,44,20.80
2009,05,31,12,45,20.80
2009,05,31,12,46,20.80
2009,05,31,12,47,20.80
2009,05,31,12,48,20.80
2009,05,31,12,49,20.80
2009,05,31,12,50,20.90
2009,05,31,12,51,20.90
2009,05,31,12,52,20.80
2009,05,31,12,53,20.80
2009,05,31,12,54,20.80
2009,05,31,12,55,20.80
2009,05,31,12,56,20.80
2009,05,31,12,57,20.80
2009,05,31,12,58,20.80
2009,05,31,12,59,20.80
2009,05,31,13,00,20.80
2009,05,31,13,01,20.90
2009,05,31,13,02,21.00
2009,05,31,13,03,21.00
2009,05,31,13,04,20.90
2009,05,31,13,05,20.90
2009,05,31,13,06,20.80
2009,05,31,13,07,20.90
2009,05,31,13,08,20.90
2009,05,31,13,09,21.00
2009,05,31,13,10,21.10
2009,05,31,13,11,21.20
2009,05,31,13,12,21.20
2009,05,31,13,13,21.30
2009,05,31,13,14,21.50
2009,05,31,13,15,21.60
2009,05,31,13,16,21.60
2009,05,31,13,17,21.70
2009,05,31,13,18,21.60
2009,05,31,13,19,21.60
2009,05,31,13,20,21.60
2009,05,31,13,21,21.60
2009,05,31,13,22,21.70
2009,05,31,13,23,21.80
2009,05,31,13,24,21.90
2009,05,31,13,25,22.00
2009,05,31,13,26,22.00
2009,05,31,13,27,22.10
2009,05,31,13,28,22.10
2009,05,31,13,29,22.10
2009,05,31,13,30,22.20
2009,05,31,13,31,22.20
2009,05,31,13,32,22.30
2009,05,31,13,33,22.30
2009,05,31,13,34,22.20
2009,05,31,13,35,22.20
2009,05,31,13,36,22.20
2009,05,31,13,37,22.20
2009,05,31,13,38,22.10
2009,05,31,13,39,22.10
2009,05,31,13,40,22.10
2009,05,31,13,41,22.10
2009,05,31,13,42,22.10
2009,05,31,13,43,22.10
2009,05,31,13,44,22.00
2009,05,31,13,45,21.90
2009,05,31,13,46,21.90
2009,05,31,13,47,21.90
2009,05,31,13,48,22.00
2009,05,31,13,49,22.10
2009,05,31,13,50,22.10
2009,05,31,13,51,22.10
2009,05,31,13,52,22.10
2009,05,31,13,53,22.20
2009,05,31,13,54,22.30
2009,05,31,13,55,22.30
2009,05,31,13,56,22.40
2009,05,31,13,57,22.40
2009,05,31,13,58,22.40
2009,05,31,13,59,22.30
2009,05,31,14,00,22.20
2009,05,31,14,01,22.20
2009,05,31,14,02,22.10
2009,05,31,14,03,22.20
2009,05,31,14,04,22.20
2009,05,31,14,05,22.30
2009,05,31,14,06,22.40
2009,05,31,14,07,22.40
2009,05,31,14,08,22.40
2009,05,31,14,09,22.30
2009,05,31,14,10,22.30
2009,05,31,14,11,22.20
2009,05,31,14,12,22.20
2009,05,31,14,13,22.20
2009,05,31,14,14,22.10
2009,05,31,14,15,22.10
2009,05,31,14,16,22.10
2009,05,31,14,17,22.10
2009,05,31,14,18,22.10
2009,05,31,14,19,22.10
2009,05,31,14,20,22.10
2009,05,31,14,21,22.10
2009,05,31,14,22,22.10
2009,05,31,14,23,22.10
2009,05,31,14,24,22.10
2009,05,31,14,25,22.10
2009,05,31,14,26,22.10
2009,05,31,14,27,22.10
2009,05,31,14,28,22.10
2009,05,31,14,29,22.10
2009,05,31,14,30,22.20
2009,05,31,14,31,22.30
2009,05,31,14,32,22.30
2009,05,31,14,33,22.30
2009,05,31,14,34,22.30
2009,05,31,14,35,22.30
2009,05,31,14,36,22.30
2009,05,31,14,37,22.30
2009,05,31,14,38,22.30
2009,05,31,14,39,22.30
2009,05,31,14,40,22.30
2009,05,31,14,41,22.30
2009,05,31,14,42,22.20
2009,05,31,14,43,22.10
2009,05,31,14,44,22.00
2009,05,31,14,45,22.00
2009,05,31,14,46,22.00
2009,05,31,14,47,22.00
2009,05,31,14,48,21.90
2009,05,31,14,49,21.90
2009,05,31,14,50,21.80
2009,05,31,14,51,21.80
2009,05,31,14,52,21.80
2009,05,31,14,53,21.80
2009,05,31,14,54,21.80
2009,05,31,14,55,21.90
2009,05,31,14,56,21.90
2009,05,31,14,57,22.00
2009,05,31,14,58,22.10
2009,05,31,14,59,22.10
2009,05,31,15,00,22.10
2009,05,31,15,01,22.10
2009,05,31,15,02,22.10
2009,05,31,15,03,22.10
2009,05,31,15,04,22.00
2009,05,31,15,05,22.00
2009,05,31,15,06,22.10
2009,05,31,15,07,22.20
2009,05,31,15,08,22.20
2009,05,31,15,09,22.30
2009,05,31,15,10,22.30
2009,05,31,15,11,22.30
2009,05,31,15,12,22.30
2009,05,31,15,13,22.30
2009,05,31,15,14,22.30
2009,05,31,15,15,22.30
2009,05,31,15,16,22.30
2009,05,31,15,17,22.30
2009,05,31,15,18,22.30
2009,05,31,15,19,22.30
2009,05,31,15,20,22.30
2009,05,31,15,21,22.30
2009,05,31,15,22,22.40
2009,05,31,15,23,22.40
2009,05,31,15,24,22.40
2009,05,31,15,25,22.50
2009,05,31,15,26,22.50
2009,05,31,15,27,22.60
2009,05,31,15,28,22.70
2009,05,31,15,29,22.80
2009,05,31,15,30,22.80
2009,05,31,15,31,22.80
2009,05,31,15,32,22.80
2009,05,31,15,33,22.80
2009,05,31,15,34,22.80
2009,05,31,15,35,22.80
2009,05,31,15,36,22.90
2009,05,31,15,37,23.00
2009,05,31,15,38,23.10
2009,05,31,15,39,23.30
2009,05,31,15,40,23.30
2009,05,31,15,41,23.30
2009,05,31,15,42,23.40
2009,05,31,15,43,23.40
2009,05,31,15,44,23.40
2009,05,31,15,45,23.40
2009,05,31,15,46,23.30
2009,05,31,15,47,23.20
2009,05,31,15,48,23.20
2009,05,31,15,49,23.20
2009,05,31,15,50,23.20
2009,05,31,15,51,23.20
2009,05,31,15,52,23.20
2009,05,31,15,53,23.20
2009,05,31,15,54,23.20
2009,05,31,15,55,23.20
2009,05,31,15,56,23.30
2009,05,31,15,57,23.30
2009,05,31,15,58,23.40
2009,05,31,15,59,23.50
2009,05,31,16,00,23.60
2009,05,31,16,01,23.70
2009,05,31,16,02,23.80
2009,05,31,16,03,23.90
2009,05,31,16,04,24.00
2009,05,31,16,05,24.00
2009,05,31,16,06,24.10
2009,05,31,16,07,24.10
2009,05,31,16,08,24.10
2009,05,31,16,09,24.20
2009,05,31,16,10,24.20
2009,05,31,16,11,24.20
2009,05,31,16,12,24.20
2009,05,31,16,13,24.20
2009,05,31,16,14,24.20
2009,05,31,16,15,24.20
2009,05,31,16,16,24.20
2009,05,31,16,17,24.20
2009,05,31,16,18,24.20
2009,05,31,16,19,24.20
2009,05,31,16,20,24.10
2009,05,31,16,21,24.00
2009,05,31,16,22,24.00
2009,05,31,16,23,24.00
2009,05,31,16,24,23.90
2009,05,31,16,25,23.90
2009,05,31,16,26,23.90
2009,05,31,16,27,23.90
2009,05,31,16,28,23.90
2009,05,31,16,29,23.80
2009,05,31,16,30,23.80
2009,05,31,16,31,23.70
2009,05,31,16,32,23.70
2009,05,31,16,33,23.70
2009,05,31,16,34,23.70
2009,05,31,16,35,23.70
2009,05,31,16,36,23.60
2009,05,31,16,37,23.50
2009,05,31,16,38,23.30
2009,05,31,16,39,23.20
2009,05,31,16,40,23.10
2009,05,31,16,41,23.10
2009,05,31,16,42,23.00
2009,05,31,16,43,22.90
2009,05,31,16,44,22.80
2009,05,31,16,45,22.70
2009,05,31,16,46,22.60
2009,05,31,16,47,22.50
2009,05,31,16,48,22.50
2009,05,31,16,49,22.40
2009,05,31,16,50,22.40
2009,05,31,16,51,22.40
2009,05,31,16,52,22.40
2009,05,31,16,53,22.50
2009,05,31,16,54,22.50
2009,05,31,16,55,22.60
2009,05,31,16,56,22.60
2009,05,31,16,57,22.60
2009,05,31,16,58,22.60
2009,05,31,16,59,22.70
2009,05,31,17,00,22.70
2009,05,31,17,01,22.70
2009,05,31,17,02,22.70
2009,05,31,17,03,22.70
2009,05,31,17,04,22.70
2009,05,31,17,05,22.70
2009,05,31,17,06,22.60
2009,05,31,17,07,22.50
2009,05,31,17,08,22.40
2009,05,31,17,09,22.30
2009,05,31,17,10,22.30
2009,05,31,17,11,22.30
2009,05,31,17,12,22.30
2009,05,31,17,13,22.30
2009,05,31,17,14,22.30
2009,05,31,17,15,22.20
2009,05,31,17,16,22.10
2009,05,31,17,17,22.10
2009,05,31,17,18,22.00
2009,05,31,17,19,21.90
2009,05,31,17,20,21.80
2009,05,31,17,21,21.80
2009,05,31,17,22,21.70